• In Russia
  • List of Countries
  • For 7 days
  • Water Temperature
  • Satellite Maps
  • Weather Map
  • Weather Widgets
  • user-avatar
    Login

    Hourly Weather Coleraine

    Today, 18 October, Wednesday

    Time Temperature Precipitation Wind Pressure Humidity
    00:00 +8°C° 0 mm 1 mps 759 mmHg 96%
    01:00 +8°C° 0 mm 1 mps 758 mmHg 95%
    02:00 +8°C° 0 mm 1 mps 758 mmHg 95%
    03:00 +8°C° 0 mm 1 mps 758 mmHg 95%
    04:00 +8°C° 0 mm 1 mps 757 mmHg 96%
    05:00 +7°C° 0 mm 2 mps 757 mmHg 96%
    06:00 +7°C° 0 mm 2 mps 757 mmHg 96%
    07:00 +7°C° 0 mm 3 mps 757 mmHg 95%
    08:00 +8°C° 0 mm 3 mps 757 mmHg 94%
    09:00 +8°C° 0 mm 4 mps 757 mmHg 92%
    10:00 +10°C° 0 mm 4 mps 756 mmHg 89%
    11:00 +10°C° 0 mm 5 mps 756 mmHg 85%
    12:00 +11°C° 0 mm 6 mps 756 mmHg 81%
    13:00 +11°C° 0 mm 6 mps 755 mmHg 80%
    14:00 +11°C° 0 mm 6 mps 755 mmHg 79%
    15:00 +11°C° 0 mm 6 mps 754 mmHg 77%
    16:00 +11°C° 0 mm 7 mps 753 mmHg 80%
    17:00 +10°C° 0 mm 7 mps 753 mmHg 82%
    18:00 +9°C° 0 mm 7 mps 752 mmHg 85%
    19:00 +10°C° 0.4 mm 7 mps 752 mmHg 87%
    20:00 +10°C° 0.4 mm 8 mps 752 mmHg 90%
    21:00 +10°C° 0.4 mm 8 mps 751 mmHg 93%
    22:00 +11°C° 0.3 mm 8 mps 751 mmHg 93%
    23:00 +11°C° 0.3 mm 7 mps 750 mmHg 94%

    Tomorrow, 19 October, Thursday

    Time Temperature Precipitation Wind Pressure Humidity
    00:00 +12°C° 0.3 mm 7 mps 749 mmHg 94%
    01:00 +12°C° 0.1 mm 7 mps 749 mmHg 94%
    02:00 +12°C° 0.1 mm 7 mps 749 mmHg 95%
    03:00 +12°C° 0.1 mm 7 mps 748 mmHg 95%
    04:00 +11°C° 0.1 mm 7 mps 748 mmHg 94%
    05:00 +11°C° 0.1 mm 7 mps 748 mmHg 93%
    06:00 +11°C° 0.1 mm 6 mps 747 mmHg 93%
    07:00 +11°C° 0 mm 7 mps 747 mmHg 92%
    08:00 +11°C° 0 mm 7 mps 747 mmHg 91%
    09:00 +12°C° 0 mm 7 mps 747 mmHg 90%
    10:00 +12°C° 0.2 mm 7 mps 747 mmHg 90%
    11:00 +12°C° 0.2 mm 7 mps 747 mmHg 89%
    12:00 +12°C° 0.2 mm 7 mps 747 mmHg 88%
    13:00 +12°C° 0.5 mm 7 mps 746 mmHg 89%
    14:00 +12°C° 0.5 mm 7 mps 746 mmHg 90%
    15:00 +13°C° 0.5 mm 6 mps 746 mmHg 91%
    16:00 +13°C° 0.7 mm 6 mps 746 mmHg 92%
    17:00 +13°C° 0.7 mm 6 mps 746 mmHg 93%
    18:00 +13°C° 0.7 mm 6 mps 746 mmHg 94%
    19:00 +11°C° 0.2 mm 6 mps 746 mmHg 94%
    20:00 +12°C° 0.2 mm 5 mps 747 mmHg 95%
    21:00 +12°C° 0.2 mm 5 mps 747 mmHg 96%
    22:00 +12°C° 0.1 mm 5 mps 747 mmHg 95%
    23:00 +10°C° 0.1 mm 5 mps 747 mmHg 95%

    Day after tomorrow, 20 October, Friday

    Time Temperature Precipitation Wind Pressure Humidity
    00:00 +10°C° 0.1 mm 5 mps 748 mmHg 94%
    01:00 +9°C° 0.3 mm 6 mps 748 mmHg 94%
    02:00 +9°C° 0.3 mm 6 mps 748 mmHg 93%
    03:00 +9°C° 0.3 mm 6 mps 749 mmHg 93%
    04:00 +8°C° 0.1 mm 5 mps 749 mmHg 92%
    05:00 +8°C° 0.1 mm 5 mps 749 mmHg 92%
    06:00 +7°C° 0.1 mm 4 mps 749 mmHg 92%
    07:00 +8°C° 0 mm 4 mps 749 mmHg 91%
    08:00 +9°C° 0 mm 3 mps 750 mmHg 89%
    09:00 +10°C° 0 mm 3 mps 750 mmHg 88%
    10:00 +10°C° 0 mm 2 mps 750 mmHg 85%
    11:00 +12°C° 0 mm 2 mps 749 mmHg 82%
    12:00 +13°C° 0 mm 1 mps 749 mmHg 80%
    13:00 +13°C° 0 mm 2 mps 749 mmHg 81%
    14:00 +12°C° 0 mm 3 mps 748 mmHg 83%
    15:00 +12°C° 0 mm 4 mps 747 mmHg 85%
    16:00 +12°C° 0 mm 5 mps 747 mmHg 87%
    17:00 +10°C° 0 mm 5 mps 746 mmHg 88%
    18:00 +10°C° 0 mm 6 mps 745 mmHg 90%
    19:00 +10°C° 0.2 mm 7 mps 744 mmHg 89%
    20:00 +8°C° 0.2 mm 9 mps 743 mmHg 88%
    21:00 +8°C° 0.2 mm 10 mps 742 mmHg 86%
    22:00 +9°C° 0.2 mm 10 mps 742 mmHg 87%
    23:00 +10°C° 0.2 mm 9 mps 741 mmHg 89%

    21 October, Saturday

    Time Temperature Precipitation Wind Pressure Humidity
    00:00 +11°C° 0.2 mm 9 mps 740 mmHg 90%
    01:00 +10°C° 0.1 mm 9 mps 740 mmHg 89%
    02:00 +10°C° 0.1 mm 8 mps 739 mmHg 89%
    03:00 +9°C° 0.1 mm 7 mps 738 mmHg 88%
    04:00 +9°C° 0 mm 8 mps 737 mmHg 87%
    05:00 +8°C° 0 mm 9 mps 736 mmHg 85%
    06:00 +8°C° 0 mm 9 mps 736 mmHg 84%
    07:00 +10°C° 0.6 mm 9 mps 735 mmHg 87%
    08:00 +10°C° 0.6 mm 9 mps 734 mmHg 89%
    09:00 +10°C° 0.6 mm 9 mps 734 mmHg 91%
    10:00 +11°C° 0.7 mm 8 mps 734 mmHg 90%
    11:00 +12°C° 0.7 mm 7 mps 734 mmHg 89%
    12:00 +13°C° 0.7 mm 6 mps 733 mmHg 87%
    13:00 +13°C° 0.9 mm 6 mps 734 mmHg 89%
    14:00 +11°C° 0.9 mm 6 mps 734 mmHg 90%
    15:00 +11°C° 0.9 mm 6 mps 735 mmHg 91%
    16:00 +10°C° 1.2 mm 7 mps 736 mmHg 91%
    17:00 +10°C° 1.2 mm 8 mps 737 mmHg 91%
    18:00 +8°C° 1.2 mm 10 mps 739 mmHg 91%
    19:00 +8°C° 0.8 mm 11 mps 740 mmHg 90%
    20:00 +8°C° 0.8 mm 12 mps 742 mmHg 88%
    21:00 +8°C° 0.8 mm 13 mps 743 mmHg 87%
    22:00 +8°C° 0.2 mm 13 mps 744 mmHg 86%
    23:00 +8°C° 0.2 mm 13 mps 745 mmHg 85%

    22 October, Sunday

    Time Temperature Precipitation Wind Pressure Humidity
    00:00 +7°C° 0.2 mm 13 mps 746 mmHg 85%
    01:00 +7°C° 0.4 mm 13 mps 746 mmHg 84%
    02:00 +7°C° 0.4 mm 13 mps 747 mmHg 84%
    03:00 +7°C° 0.4 mm 13 mps 747 mmHg 84%
    04:00 +7°C° 0.2 mm 13 mps 748 mmHg 84%
    05:00 +6°C° 0.2 mm 14 mps 748 mmHg 84%
    06:00 +6°C° 0.2 mm 14 mps 748 mmHg 84%
    07:00 +6°C° 0.1 mm 14 mps 749 mmHg 82%
    08:00 +7°C° 0.1 mm 13 mps 750 mmHg 81%
    09:00 +7°C° 0.1 mm 12 mps 751 mmHg 79%
    10:00 +7°C° 0 mm 12 mps 752 mmHg 76%
    11:00 +8°C° 0 mm 12 mps 752 mmHg 73%
    12:00 +8°C° 0 mm 12 mps 753 mmHg 70%
    13:00 +9°C° 0 mm 12 mps 754 mmHg 71%
    14:00 +9°C° 0 mm 11 mps 754 mmHg 72%
    15:00 +9°C° 0 mm 11 mps 754 mmHg 73%
    16:00 +8°C° 0 mm 10 mps 755 mmHg 77%
    17:00 +9°C° 0 mm 8 mps 755 mmHg 81%
    18:00 +8°C° 0 mm 7 mps 756 mmHg 85%
    19:00 +8°C° 0 mm 6 mps 756 mmHg 87%
    20:00 +7°C° 0 mm 6 mps 756 mmHg 89%
    21:00 +7°C° 0 mm 5 mps 756 mmHg 91%
    22:00 +7°C° 0.1 mm 5 mps 755 mmHg 92%
    23:00 +7°C° 0.1 mm 6 mps 755 mmHg 92%

    23 October, Monday

    Time Temperature Precipitation Wind Pressure Humidity
    00:00 +8°C° 0.1 mm 6 mps 754 mmHg 92%
    01:00 +8°C° 0.7 mm 6 mps 754 mmHg 93%
    02:00 +9°C° 0.7 mm 7 mps 753 mmHg 93%
    03:00 +10°C° 0.7 mm 8 mps 752 mmHg 94%
    04:00 +10°C° 0.4 mm 8 mps 752 mmHg 93%
    05:00 +11°C° 0.4 mm 8 mps 751 mmHg 93%
    06:00 +12°C° 0.4 mm 8 mps 750 mmHg 93%
    07:00 +12°C° 0.1 mm 8 mps 750 mmHg 92%
    08:00 +14°C° 0.1 mm 7 mps 750 mmHg 92%
    09:00 +14°C° 0.1 mm 7 mps 750 mmHg 92%
    10:00 +14°C° 0.3 mm 7 mps 750 mmHg 92%
    11:00 +15°C° 0.3 mm 8 mps 750 mmHg 92%
    12:00 +15°C° 0.3 mm 8 mps 750 mmHg 92%
    13:00 +15°C° 0.2 mm 8 mps 750 mmHg 91%
    14:00 +15°C° 0.2 mm 7 mps 750 mmHg 91%
    15:00 +15°C° 0.2 mm 7 mps 750 mmHg 91%
    16:00 +15°C° 0.1 mm 6 mps 751 mmHg 92%
    17:00 +14°C° 0.1 mm 5 mps 751 mmHg 93%
    18:00 +13°C° 0.1 mm 4 mps 751 mmHg 94%
    19:00 +13°C° 0 mm 4 mps 751 mmHg 95%
    20:00 +13°C° 0 mm 4 mps 752 mmHg 95%
    21:00 +12°C° 0 mm 4 mps 752 mmHg 96%
    22:00 +12°C° 0.1 mm 4 mps 752 mmHg 96%
    23:00 +12°C° 0.1 mm 4 mps 752 mmHg 95%
    Show more